Regional Weather Roundup
Issued by NWS Green Bay, WI

Home | Current Version | Previous Version | Graphics & Text | Print | Product List | Glossary Off
Versions: 1 2 3 4 5 6 7 8 9 10 11 12 13 14 15 16 17 18 19 20 21 22 23 24 25 26 27 28 29 30 31 32 33 34 35 36 37 38 39 40 41 42 43 44 45 46 47 48 49 50

000
ASUS43 KGRB 261011
RWRGRB

NORTH-CENTRAL AND NORTHEAST WISCONSIN REGIONAL WEATHER ROUNDUP
NATIONAL WEATHER SERVICE GREEN BAY WI
500 AM CDT TUE MAY 26 2015

WIZ005-009-010>012-018-019-261100-
NORTH CENTRAL WISCONSIN

CITY           SKY/WX    TMP DP  RH WIND       PRES   REMARKS
IRONWOOD       CLOUDY    52  52 100 CALM      29.79R
MANITOWISH WTR CLOUDY    59  59 100 W3        29.81R
ARBOR VITAE    MOCLDY    59  58  96 S3        29.81S FOG
EAGLE RIVER    CLOUDY    59  59 100 CALM      29.82S FOG
LAND O LAKES   FOG       57  57 100 CALM      29.83R VSB 1/2
RHINELANDER    CLOUDY    60  59  96 SW8       29.82F
PHILLIPS       PTCLDY    57  57 100 S3        29.80S FOG
ANTIGO         PTCLDY    57  57 100 CALM      29.84S FOG
TOMAHAWK       CLOUDY    57  56  97 CALM      29.81F FOG
MERRILL        PTCLDY    53  53 100 CALM      29.82S FOG
$$

WIZ013-073-261100-
NORTHEAST WISCONSIN

CITY           SKY/WX    TMP DP  RH WIND       PRES   REMARKS
IRON MOUNTAIN  CLEAR     57  56  96 CALM      29.81S FOG
MARINETTE      CLEAR     61  57  88 SW3       29.83R
OCONTO         CLEAR     61  61 100 S3        29.83S
$$

WIZ017-030-035>037-045-261100-
CENTRAL WISCONSIN

CITY           SKY/WX    TMP DP  RH WIND       PRES   REMARKS
MEDFORD        CLOUDY    58  58  99 CALM      29.80F
WAUSAU         PTCLDY    62  60  93 SE7       29.81S
MOSINEE        MOCLDY    59  59 100 S6        29.83S
MARSHFIELD     FOG       60  58  92 S5        29.82R VSB 3/4
WISC RAPIDS    CLOUDY    63  60  90 S6        29.83S
STEVENS POINT  MOCLDY    57  57  99 CALM      29.83R
WAUPACA        PTCLDY    62  62  98 CALM      29.84S
SHAWANO          N/A     61  59  94 CALM      29.84R FOG
CLINTONVILLE   PTCLDY    59  59 100 S7        29.84R
$$

WIZ038-039-048-051-261100-
FOX VALLEY

CITY           SKY/WX    TMP DP  RH WIND       PRES   REMARKS
NWS GREEN BAY  CLEAR     62  59  90 S5        29.86R
APPLETON       MOCLDY    64  59  82 S8        29.86R
OSHKOSH        CLEAR     63  59  87 S8        29.84F
FOND DU LAC    CLEAR     67  61  81 S15       29.86S
$$

WIZ022-050-052-261100-
EAST CENTRAL WISCONSIN

CITY           SKY/WX    TMP DP  RH WIND       PRES   REMARKS
STURGEON BAY   CLEAR     64  57  77 S7        29.87S
MANITOWOC      CLEAR     60  58  92 S6        29.88R
SHEBOYGAN      CLEAR     60  58  92 S8        29.88R
$$

LMZ563-521-522-541>543-261100-
LAKESHORE

STATION/POSITION TIME  TEMP    WIND        PRES    VSBY  WAVE
                       AIR SEA DIR/SP/G                  HT/PER
                 (UTC) (F)     (DEG/KT/KT) (MB)    (MI)  (FT/S)
SHEBOYGAN LKSHOR 1000   57     180/ 15/ 16 1011.9R
KEWAUNEE LKSHORE 0900   52     180/ 11/ 12 1010.3R
NORTHPORT PIER   0900   53     140/  4/  5 1010.5S
N MID LAKE BUOY  0950   41 37  180/ 10/ 12 1011.3S         2/ 5
SISTER BAY LKSHO 0903   68     200/ 11/ 14   N/A
CHAMBERS ISLAND  0900   61     170/  4/  8 1010.2S
MENOMINEE LKSHOR 0900   63     210/  6/  7 1010.6S
$$


USA.gov is the U.S. government's official web portal to all federal, state and local government web resources and services.